Torna al catalogo

STARLINK-37058

AttivoComunicazioniVLEO
NORAD 68195·PAYLOAD·🇺🇸 United States

Lanciato Mar 14, 2026 da Vandenberg Space Force Base

Loading…

Prossimi Passaggi (prossime 24 ore)

TLE

AggiornatoSource: CelesTrak SupGP

Epoca: Sep 14, 2026, 23:14 UTC

1 68195C 26050AE  26257.96854167  .00028461  00000+0  84102-3 0  2575
2 68195  53.1581 103.3457 0001247  80.6857 221.2529 15.34371532    13

Traccia STARLINK-37058 in tempo reale con AllMySat

Download on the App Store